Volver al catálogo

FENGYUN 1C DEB

ActivoPO
NORAD 36218·DEBRIS·🇨🇳 China

Lanzado May 10, 1999 desde Taiyuan Satellite Launch Center

Loading…

Próximos Pases (próximas 24 horas)

TLE

ActualizadoSource: Space-Track

Época: Sep 14, 2026, 02:40 UTC

1 36218U 99025DUT 26257.11166005  .00003331  00000-0  49799-3 0  9998
2 36218  99.0494 134.8954 0069019 159.3314 201.0707 14.73949016631968

Sigue FENGYUN 1C DEB en tiempo real con AllMySat

Download on the App Store